User: anonymous   Login
Location: Poughquag
(41.6090°N, 73.6820°W)
Time: 18:23:45
(UTC-05:00)
Language:

AO-92 - Orbit

View from above orbital plane
View from above orbital plane
View from above satellite
View from above satellite

Ground track
Ground track

The orbit data is extracted from the following two-line orbital elements,

1 43137U 18004AC  23332.19293395  .00166996  00000-0  13869-2 0  9991
2 43137  97.3097  55.1214 0003693 249.2488 110.8379 15.69655403327792
Epoch (UTC): 28 November 2023 04:37:49
Eccentricity: 0.0003693
inclination: 97.3097°
perigee height: 357 km
apogee height: 362 km
right ascension of ascending node: 55.1214°
argument of perigee: 249.2488°
revolutions per day: 15.69655403
mean anomaly at epoch: 110.8379°
orbit number at epoch: 32779

The dashed part of the orbit path shows where the satellite is in the earth's shadow,  

DLR